Probability
23 19 42 55 42 39 39 39 42 35 35 35 39 35 32 29 35 26 26 26 26 19 16 19 16 16 10 10 10 6 6 10 6 6 6 3 6 6 10 10 3 0 6
23 16 45 52 45 35 32 32 32 32 35 39 32 32 32 32 32 23 23 23 23 19 19 16 13 13 13 10 10 10 10 6 6 6 6 3 6 6 6 6 3 3 6
23 19 39 48 39 29 32 32 32 32 32 26 29 35 32 29 29 23 19 23 19 16 16 13 10 13 16 13 10 10 13 10 3 6 3 0 0 0 3 6 6 6 6
23 19 19 45 32 29 26 26 29 29 29 23 23 26 29 32 23 23 19 19 19 16 16 10 13 10 10 6 6 10 10 6 3 3 0 0 0 0 0 6 3 3 3
23 23 23 35 32 29 26 26 26 26 26 23 23 23 26 26 26 26 26 23 19 23 16 16 10 13 10 6 3 6 6 6 0 0 0 0 0 0 3 6 6 3 3
13 19 29 32 29 29 26 26 26 26 26 19 23 23 23 26 26 26 26 29 29 23 19 16 13 13 13 6 10 6 3 3 0 0 0 0 0 0 3 3 6 3 3
16 19 23 32 32 29 29 19 26 26 26 19 19 23 29 29 26 26 29 26 26 23 19 16 13 13 13 10 10 6 3 0 0 0 0 0 0 0 0 0 0 0 0
16 16 23 35 35 35 29 32 26 26 23 19 19 23 23 26 26 26 26 23 19 19 13 16 13 16 10 6 6 6 3 0 0 0 0 0 0 0 0 0 0 0 0
13 16 19 19 26 32 29 29 26 19 16 16 19 16 19 23 23 23 23 26 26 19 19 13 13 16 10 10 10 3 3 0 0 0 0 0 0 3 3 3 3 3 0
10 16 19 19 19 19 16 19 13 13 13 10 10 13 10 10 16 23 19 16 16 10 10 13 10 13 6 10 10 3 0 0 0 0 0 0 0 3 3 3 3 3 3
10 10 10 16 19 16 10 10 10 3 0 3 3 3 3 3 3 3 6 6 6 10 10 10 10 6 0 0 0 0 0 0 0 0 0 0 0 3 3 6 6 3 3
6 10 10 13 16 10 10 6 3 3 0 0 0 0 0 0 0 0 0 0 3 6 6 6 6 3 0 0 0 0 0 0 0 0 0 0 3 0 0 3 6 3 3
10 10 10 10 6 10 10 10 6 3 3 0 0 0 0 0 0 0 0 0 0 0 0 0 0 0 0 0 0 0 0 0 0 0 0 0 3 0 0 3 3 3 3
13 13 10 10 6 6 6 6 6 6 3 3 3 0 0 0 3 0 0 0 0 0 0 0 0 0 0 0 0 0 0 0 0 0 0 0 0 0 3 3 0 3 3
6 6 6 6 6 6 3 6 6 6 6 3 3 3 0 3 3 0 0 0 0 0 0 0 0 0 0 0 0 0 0 0 0 0 0 0 0 0 3 0 0 0 0
0 6 10 10 10 6 3 3 6 6 6 3 0 3 3 3 0 0 0 0 0 0 0 0 0 0 0 0 0 0 0 0 0 0 0 0 0 0 0 0 0 0 0
0 0 6 6 6 6 3 3 3 3 6 3 0 0 0 3 0 0 0 0 0 0 0 0 0 0 0 0 0 0 0 0 0 0 0 0 0 0 0 0 0 0 0
0 0 3 3 3 0 0 3 3 3 3 0 0 0 0 0 0 0 0 0 0 0 0 0 0 0 0 0 0 0 0 0 0 0 0 0 0 0 0 0 0 0 0
0 0 0 3 3 0 0 0 3 0 0 0 0 0 0 0 0 0 0 0 0 0 0 0 0 0 0 0 0 0 0 0 0 0 0 0 0 0 0 0 0 0 0
0 0 0 0 3 0 0 0 0 0 0 0 0 0 0 0 0 0 0 0 0 0 0 0 0 0 0 0 0 0 0 0 0 0 0 0 0 0 0 0 0 0 0
0 0 0 0 0 0 0 0 0 0 0 0 0 0 0 0 0 0 0 0 0 0 0 0 0 0 0 0 0 0 0 0 0 0 0 0 0 0 0 0 0 0 0
0 0 0 0 0 0 0 0 0 0 0 0 0 0 0 0 0 0 0 0 0 0 0 0 0 0 0 0 0 0 0 0 0 0 0 0 0 0 0 0 0 0 0
0 0 0 0 0 0 0 0 0 0 0 0 0 0 0 0 0 0 0 0 0 0 0 0 0 0 0 0 0 0 0 0 0 0 0 0 0 0 0 0 0 0 0
0 0 0 0 0 0 0 0 0 0 0 0 0 0 0 0 0 0 0 0 0 0 0 0 0 0 0 0 0 0 0 0 0 0 0 0 0 0 0 0 0 0 0
0 0 0 0 0 0 0 0 0 0 0 0 0 0 0 0 0 0 0 0 0 0 0 0 0 0 0 0 0 0 0 0 0 0 0 0 0 0 0 0 0 0 0
0 0 0 0 0 0 0 0 0 0 0 0 0 0 0 0 0 0 0 0 0 0 0 0 0 0 0 0 0 0 0 0 0 0 0 0 0 0 0 0 0 0 0
Height
5835 5835 5836 5837 5838 5839 5840 5841 5842 5843 5844 5845 5846 5847 5848 5849 5850 5851 5852 5853 5854 5855 5856 5857 5858 5858 5859 5859 5860 5860 5860 5860 5861 5861 5861 5861 5861 5861 5861 5861 5861 5861 5861
5832 5833 5834 5835 5836 5837 5838 5839 5840 5841 5842 5842 5843 5844 5845 5846 5848 5849 5850 5851 5852 5853 5854 5855 5856 5856 5857 5857 5858 5858 5859 5859 5859 5859 5859 5860 5860 5860 5860 5860 5859 5859 5859
5828 5829 5830 5832 5833 5834 5835 5835 5836 5837 5839 5839 5840 5841 5842 5843 5845 5846 5847 5848 5849 5850 5851 5852 5853 5854 5855 5855 5856 5856 5856 5857 5857 5857 5857 5858 5858 5858 5858 5857 5857 5857 5857
5825 5826 5827 5828 5829 5830 5831 5832 5833 5834 5835 5836 5837 5838 5839 5840 5841 5843 5844 5845 5846 5847 5848 5849 5850 5851 5852 5853 5853 5853 5854 5854 5855 5855 5855 5855 5855 5855 5855 5855 5855 5855 5854
5821 5822 5823 5824 5826 5827 5828 5829 5829 5830 5831 5832 5833 5834 5836 5837 5838 5839 5840 5842 5843 5844 5845 5846 5847 5848 5849 5850 5850 5851 5851 5852 5852 5852 5852 5852 5852 5852 5852 5852 5852 5852 5852
5817 5818 5819 5820 5821 5823 5824 5824 5825 5826 5827 5828 5829 5830 5832 5833 5834 5836 5837 5838 5839 5841 5842 5843 5844 5845 5845 5846 5847 5847 5848 5848 5849 5849 5849 5849 5849 5849 5849 5849 5849 5849 5848
5812 5814 5815 5816 5817 5818 5819 5820 5821 5822 5823 5824 5825 5826 5827 5829 5830 5832 5833 5834 5835 5837 5838 5839 5840 5841 5841 5842 5843 5844 5844 5845 5845 5846 5846 5846 5846 5846 5846 5846 5846 5845 5845
5807 5809 5810 5811 5812 5814 5815 5816 5817 5818 5819 5820 5821 5822 5823 5824 5826 5827 5829 5830 5831 5832 5833 5835 5836 5836 5837 5838 5839 5840 5840 5841 5841 5842 5842 5842 5842 5842 5842 5842 5842 5842 5841
5802 5804 5805 5806 5807 5808 5810 5811 5812 5813 5814 5815 5816 5817 5818 5819 5821 5823 5824 5825 5826 5828 5829 5830 5831 5832 5833 5834 5834 5835 5836 5837 5837 5838 5838 5838 5838 5838 5838 5838 5838 5837 5837
5796 5798 5799 5801 5802 5803 5804 5805 5806 5807 5809 5810 5811 5812 5813 5815 5816 5818 5819 5820 5822 5823 5824 5825 5826 5827 5828 5829 5830 5830 5831 5832 5832 5833 5833 5833 5834 5834 5834 5833 5833 5832 5832
5790 5792 5793 5795 5796 5797 5798 5800 5801 5802 5803 5804 5806 5807 5808 5810 5811 5812 5814 5815 5816 5818 5819 5820 5821 5822 5823 5824 5825 5825 5826 5827 5827 5828 5828 5828 5828 5829 5829 5828 5828 5827 5827
5784 5785 5787 5788 5790 5791 5792 5794 5795 5796 5797 5799 5800 5802 5803 5804 5805 5807 5808 5810 5811 5812 5813 5814 5815 5816 5817 5818 5819 5820 5821 5822 5822 5823 5823 5823 5823 5823 5823 5823 5822 5822 5821
5777 5778 5780 5782 5783 5785 5786 5787 5789 5790 5792 5793 5794 5796 5797 5798 5800 5801 5802 5804 5805 5806 5808 5809 5810 5811 5812 5813 5814 5815 5815 5816 5817 5817 5817 5817 5817 5817 5817 5817 5816 5815 5814
5769 5771 5773 5775 5776 5778 5779 5781 5782 5784 5785 5787 5788 5790 5791 5793 5794 5795 5796 5798 5799 5800 5802 5803 5804 5805 5806 5807 5808 5809 5810 5810 5811 5811 5811 5811 5811 5811 5811 5810 5810 5809 5808
5762 5764 5766 5767 5769 5771 5772 5774 5775 5777 5778 5780 5781 5783 5785 5786 5788 5789 5790 5791 5793 5794 5796 5797 5798 5799 5800 5801 5802 5803 5803 5804 5805 5805 5805 5805 5805 5805 5804 5803 5803 5802 5800
5754 5756 5758 5760 5761 5763 5765 5766 5768 5769 5771 5772 5774 5776 5778 5779 5781 5782 5783 5784 5786 5787 5789 5791 5792 5793 5794 5795 5796 5796 5797 5798 5798 5798 5799 5798 5798 5798 5797 5796 5795 5794 5792
5745 5747 5750 5752 5753 5756 5757 5759 5760 5762 5763 5765 5767 5768 5770 5772 5774 5775 5777 5777 5779 5780 5782 5784 5785 5786 5788 5788 5789 5790 5791 5791 5791 5791 5791 5791 5791 5790 5789 5788 5787 5786 5784
5736 5739 5741 5743 5745 5747 5750 5751 5752 5754 5756 5757 5759 5761 5762 5764 5766 5768 5769 5770 5771 5773 5775 5776 5778 5779 5780 5781 5782 5783 5784 5784 5784 5784 5784 5784 5783 5782 5781 5780 5779 5777 5776
5727 5730 5732 5734 5736 5739 5741 5743 5744 5746 5748 5750 5751 5753 5755 5757 5759 5760 5762 5763 5765 5766 5768 5769 5771 5772 5773 5774 5775 5776 5776 5777 5777 5777 5776 5776 5775 5774 5773 5772 5771 5769 5767
5717 5720 5723 5725 5727 5730 5732 5734 5735 5737 5739 5741 5743 5745 5747 5749 5751 5753 5755 5756 5758 5759 5761 5762 5763 5764 5765 5766 5767 5768 5768 5769 5768 5768 5768 5768 5767 5766 5765 5764 5762 5760 5758
5707 5710 5713 5715 5718 5720 5722 5725 5727 5729 5731 5733 5735 5737 5739 5741 5743 5745 5746 5748 5749 5751 5752 5754 5755 5756 5757 5758 5759 5759 5760 5760 5760 5760 5760 5759 5758 5757 5756 5755 5753 5751 5750
5697 5700 5703 5705 5707 5710 5713 5715 5717 5720 5722 5724 5726 5728 5730 5733 5734 5736 5738 5740 5741 5742 5744 5745 5746 5747 5748 5749 5750 5750 5751 5753 5752 5751 5751 5750 5749 5748 5747 5745 5744 5742 5740
5686 5689 5692 5695 5697 5699 5703 5705 5708 5710 5712 5715 5717 5720 5722 5724 5726 5728 5730 5731 5733 5734 5735 5736 5737 5738 5739 5740 5740 5742 5742 5743 5743 5743 5742 5741 5740 5739 5737 5736 5734 5733 5731
5675 5677 5681 5684 5687 5690 5692 5695 5698 5701 5704 5706 5709 5711 5713 5715 5717 5719 5721 5722 5724 5725 5726 5727 5728 5729 5730 5731 5731 5732 5733 5733 5734 5734 5734 5732 5730 5729 5728 5726 5724 5723 5721
5664 5667 5670 5673 5676 5679 5683 5685 5688 5691 5694 5697 5699 5702 5704 5706 5708 5710 5712 5714 5715 5716 5717 5718 5720 5721 5721 5722 5722 5723 5723 5723 5723 5724 5724 5723 5721 5719 5718 5716 5715 5713 5712
5654 5657 5660 5662 5666 5669 5672 5675 5678 5681 5684 5687 5690 5692 5695 5697 5699 5701 5703 5705 5706 5707 5708 5709 5710 5711 5712 5713 5713 5713 5713 5714 5713 5713 5713 5713 5711 5710 5708 5706 5705 5703 5701
Wind_Speed
16 16 16 16 16 16 16 15 15 16 16 16 16 16 15 15 15 14 14 13 13 13 12 12 11 11 10 10 10 10 10 10 10 10 9 9 10 10 10 10 10 10 11
17 18 18 18 17 17 17 17 17 17 18 17 17 17 17 17 16 16 16 15 15 14 14 14 13 12 12 12 12 11 11 11 11 11 11 11 11 11 11 11 12 12 12
18 19 19 19 18 19 19 18 18 19 19 19 19 19 19 18 18 18 17 17 17 16 16 15 15 14 14 14 13 13 13 12 13 13 13 13 13 13 13 13 13 13 13
20 20 20 20 20 20 20 20 20 20 20 20 20 20 20 20 19 19 19 18 18 18 18 17 16 16 15 15 15 15 14 14 14 14 14 14 14 14 14 14 15 15 15
21 21 21 21 20 21 21 21 21 21 21 21 21 21 22 21 21 21 20 20 19 19 19 19 18 18 17 17 17 17 16 16 15 15 15 15 15 15 16 16 16 16 16
23 22 22 22 21 22 22 22 22 22 22 22 22 22 22 22 22 22 22 21 20 20 20 20 20 19 19 19 18 18 18 18 18 17 17 17 16 16 16 17 17 17 18
24 24 24 24 23 23 23 23 23 23 23 23 23 22 22 23 23 23 23 23 22 21 21 21 21 20 20 20 20 20 20 19 19 19 19 18 18 18 18 18 19 19 19
26 25 26 25 25 25 25 25 25 25 25 25 24 24 24 23 24 24 23 24 24 23 23 23 22 22 22 21 21 21 21 21 21 20 20 20 20 20 20 20 20 20 21
27 27 27 27 27 26 26 26 26 26 26 26 26 25 25 25 25 24 25 24 24 24 24 23 23 24 24 23 23 22 22 22 22 21 21 21 22 22 22 22 22 22 23
29 28 28 28 28 28 27 27 27 27 27 27 27 27 26 26 26 26 26 26 26 26 25 25 24 25 25 25 24 24 23 23 23 23 23 23 23 23 23 24 24 24 24
31 31 30 30 30 29 29 29 29 29 29 28 29 28 28 27 27 27 27 27 27 27 27 27 26 26 26 26 26 25 25 24 25 24 24 24 24 24 24 25 25 25 25
33 32 32 31 31 31 30 30 30 30 30 30 29 29 29 29 29 28 28 29 28 28 27 28 27 27 27 27 26 26 26 26 26 26 25 25 25 25 26 26 26 26 27
34 33 33 32 32 31 31 31 31 31 31 31 30 30 30 29 29 30 29 30 29 29 28 28 28 28 27 28 28 27 27 26 27 27 26 27 27 27 28 28 28 29 29
35 34 33 33 33 33 32 32 32 32 32 32 31 31 31 30 30 30 31 31 31 31 30 29 29 30 29 29 29 28 28 27 27 27 27 28 28 29 30 30 31 31 32
36 35 35 35 34 34 33 33 33 33 33 33 33 32 32 31 30 30 31 31 31 31 31 31 30 31 31 30 29 29 28 28 28 28 29 29 29 30 31 31 32 33 33
37 36 36 36 35 35 34 33 34 34 33 33 33 33 32 32 31 30 31 31 31 31 32 31 31 30 31 31 31 30 30 30 30 30 30 31 31 31 32 33 33 34 35
38 37 37 37 36 35 35 34 34 34 35 34 34 33 33 33 33 32 32 32 32 33 33 32 32 31 31 31 31 31 30 31 30 31 31 32 33 33 34 34 35 36 36
38 38 37 37 37 36 36 36 35 35 35 35 34 34 34 34 34 34 33 32 33 34 33 32 32 31 31 31 32 31 32 32 32 32 33 33 34 34 35 36 37 37 37
39 38 38 38 38 37 37 37 37 36 36 35 35 34 34 34 35 35 35 34 34 34 34 33 33 32 32 32 33 33 33 33 33 34 34 35 35 35 36 36 37 38 37
41 40 39 39 39 39 38 37 37 37 37 37 36 36 36 35 35 36 35 36 35 34 35 34 34 34 34 34 35 35 35 34 35 35 36 36 37 37 37 38 38 38 37
42 41 40 40 40 39 39 38 38 37 37 37 37 37 37 37 36 36 36 36 35 35 36 36 35 35 36 37 36 36 36 36 36 36 37 37 38 38 39 39 39 39 38
41 41 41 40 39 39 39 38 38 37 37 37 38 38 38 38 37 37 37 36 36 35 36 37 37 37 37 37 37 36 37 37 36 37 37 38 39 40 40 40 40 40 39
41 42 41 41 40 40 39 39 38 38 38 38 38 38 38 38 38 38 38 38 38 38 37 37 37 37 37 37 37 37 38 38 37 37 38 39 40 41 41 41 41 40 40
41 41 41 41 41 41 39 38 38 38 38 38 38 38 38 38 38 38 38 38 37 38 39 38 38 37 37 38 38 38 39 39 39 38 38 39 40 41 41 41 41 41 40
40 40 40 41 40 40 40 38 38 39 38 38 38 38 38 38 38 38 38 38 38 38 38 38 38 38 38 38 38 38 39 39 39 39 39 39 40 41 42 41 41 40 40
38 39 40 40 40 38 38 39 39 38 38 38 38 38 38 38 39 39 38 38 39 39 38 39 40 39 38 38 38 38 39 39 40 40 40 39 40 41 42 41 40 40 40
Wind_Direction
251 252 251 250 248 249 250 249 247 247 247 246 245 243 239 237 237 239 241 243 244 245 247 251 253 254 255 257 261 262 264 267 269 270 273 276 279 283 285 288 285 285 284
252 252 252 251 250 249 249 249 248 249 248 247 246 245 242 241 240 241 242 243 245 246 248 251 254 254 257 258 261 263 265 268 269 270 272 274 277 279 282 283 283 285 285
253 254 254 254 254 251 250 250 250 250 249 249 248 246 244 243 242 243 243 246 247 247 248 250 253 254 257 259 261 263 265 267 269 271 272 274 275 276 279 280 281 283 282
256 256 256 256 256 254 252 251 251 252 252 251 250 248 246 246 245 245 246 248 249 249 249 251 252 254 257 259 262 264 265 266 269 271 272 273 274 275 277 278 281 282 282
256 256 257 258 256 256 254 253 253 253 253 252 252 251 249 248 248 247 247 248 250 251 251 252 254 254 256 258 261 264 265 267 269 271 272 272 273 274 275 277 279 280 282
256 256 257 258 257 256 255 254 254 254 253 252 252 252 251 249 249 249 249 248 250 252 253 253 254 255 257 258 261 263 265 267 269 270 271 271 272 273 275 278 280 281 281
255 256 257 257 256 256 256 255 255 254 253 253 253 252 252 251 250 249 250 249 249 251 254 257 257 258 259 260 262 264 265 265 267 269 269 269 271 272 274 276 279 280 281
255 255 257 257 256 256 256 257 257 255 255 254 253 253 252 252 251 250 250 250 251 252 255 257 257 259 259 261 263 264 265 265 266 267 268 269 270 271 273 275 278 280 282
255 255 257 257 257 256 256 257 257 256 255 255 254 254 253 252 252 251 251 251 252 252 254 255 256 257 259 261 262 264 265 266 267 267 268 269 270 272 273 275 277 280 282
255 255 257 258 258 257 256 257 257 256 255 255 255 255 254 253 252 252 253 253 253 253 254 255 256 259 260 261 262 263 265 267 267 268 269 270 271 272 274 275 277 279 280
255 256 257 258 258 257 256 257 257 256 256 256 256 256 255 254 253 252 253 253 254 254 255 257 258 258 260 261 262 263 265 267 268 269 270 270 271 273 274 276 278 280 280
256 257 257 257 258 258 257 256 257 256 256 256 257 257 256 255 254 253 253 254 254 254 255 256 257 259 260 260 262 263 265 268 268 269 270 270 271 273 275 277 278 280 281
255 256 256 256 257 257 256 256 256 256 256 255 256 257 257 257 256 255 254 254 254 255 257 257 259 260 261 262 263 263 265 267 268 269 270 271 272 274 276 278 280 281 282
254 255 256 256 256 256 255 255 255 255 255 256 256 257 257 257 258 258 256 255 255 256 257 258 261 263 263 264 263 263 264 266 267 269 270 272 273 276 278 279 280 282 283
254 254 255 255 256 256 255 255 255 255 255 255 255 256 257 256 257 259 258 255 255 256 257 259 263 264 263 263 263 264 266 267 268 269 271 273 275 277 278 279 281 282 283
254 254 254 255 255 255 255 255 254 254 254 254 254 255 256 255 255 258 259 256 255 256 257 259 262 264 265 264 264 265 267 269 270 271 272 274 276 278 279 280 282 283 284
252 253 252 253 254 254 254 255 255 254 254 253 254 254 255 254 255 256 258 257 257 256 257 260 263 264 266 266 266 267 269 269 271 272 273 274 276 278 280 281 283 285 286
251 251 252 252 253 254 255 256 256 254 254 254 254 254 254 253 253 254 257 257 257 258 260 262 263 264 266 267 267 268 269 269 270 272 274 276 277 278 280 282 283 285 285
250 250 251 252 253 253 254 255 256 255 254 254 254 254 255 254 254 254 257 257 256 258 260 262 263 264 265 266 268 269 269 270 271 273 274 276 277 279 281 282 284 285 284
249 250 250 251 251 253 253 254 255 255 254 254 254 254 255 255 255 256 257 257 257 258 260 261 263 264 265 267 268 269 270 272 273 273 274 275 277 279 281 283 284 284 284
249 250 250 252 253 252 252 253 254 254 254 253 253 253 254 254 255 256 257 257 258 258 258 259 261 263 265 267 268 269 269 271 273 273 274 275 277 279 281 282 284 283 283
249 250 250 251 251 251 251 252 253 253 254 253 253 253 253 254 254 255 256 256 258 258 258 259 261 263 265 265 266 268 268 270 272 274 275 276 277 280 281 282 283 282 282
250 250 250 250 251 251 250 251 252 252 252 252 252 253 253 253 254 255 257 258 259 259 260 261 262 263 265 266 266 267 268 269 272 275 276 276 278 280 281 282 283 282 281
250 250 250 250 250 249 249 249 250 251 252 252 252 252 253 253 255 256 257 259 259 260 262 262 263 264 265 266 266 267 270 271 272 275 277 278 279 281 281 282 282 281 281
250 250 250 249 249 248 247 247 249 250 252 251 251 252 252 253 254 255 257 258 260 261 263 263 264 265 267 267 268 269 271 272 273 277 279 280 281 281 282 282 281 281 281
249 248 249 248 247 246 246 246 248 249 250 250 251 252 253 253 255 255 257 259 260 261 262 263 264 265 267 268 269 271 272 274 275 278 279 281 282 282 282 281 280 280 280